KD8ZLZ Weather Reports


time (UTC)temp
F
wind
direction
speed
knots
gust
knots
rain 1hr
in
rain 24hr
in
rain mn
in
humidity
%
barometer
mb
20260508220535 64 241 3.5 5.2 0.00 0.00 0.00 41 1008.2
20260508220035 65 236 5.2 8.7 0.00 0.00 0.00 40 1008.2
20260508215535 67 216 2.6 7.0 0.00 0.00 0.00 41 1008.6
20260508215035 65 212 3.5 7.0 0.00 0.00 0.00 41 1008.5
20260508214534 65 217 5.2 8.7 0.00 0.00 0.00 41 1008.5
20260508214035 64 210 4.3 9.6 0.00 0.00 0.00 41 1008.5
20260508213554 64 213 4.3 8.7 0.00 0.00 0.00 41 1008.5
20260508213035 65 220 3.5 7.8 0.00 0.00 0.00 42 1008.5
20260508212535 64 213 4.3 9.6 0.00 0.00 0.00 41 1008.5
20260508212035 64 219 6.1 10.4 0.00 0.00 0.00 42 1008.5
20260508211534 64 221 5.2 11.3 0.00 0.00 0.00 42 1008.5
20260508211035 65 225 5.2 9.6 0.00 0.00 0.00 41 1008.9
20260508210535 66 191 3.5 6.1 0.00 0.00 0.00 40 1008.9
20260508210035 65 216 4.3 8.7 0.00 0.00 0.00 42 1008.9
20260508205534 65 213 4.3 8.7 0.00 0.00 0.00 41 1008.9
20260508205055 66 217 5.2 8.7 0.00 0.00 0.00 40 1008.9
20260508204555 68 227 5.2 10.4 0.00 0.00 0.00 39 1009.0
20260508204034 68 233 6.1 11.3 0.00 0.00 0.00 39 1009.0
20260508203535 69 195 3.5 12.2 0.00 0.00 0.00 37 1009.4
20260508203034 67 196 2.6 5.2 0.00 0.00 0.00 39 1009.3
20260508202534 66 211 2.6 7.0 0.00 0.00 0.00 41 1009.7
20260508202035 66 218 3.5 7.0 0.00 0.00 0.00 40 1009.7
20260508201535 66 220 3.5 7.0 0.00 0.00 0.00 40 1009.6
20260508201056 66 234 6.1 9.6 0.00 0.00 0.00 41 1009.6
20260508200534 66 225 5.2 8.7 0.00 0.00 0.00 41 1010.0
20260508200054 67 206 6.1 11.3 0.00 0.00 0.00 40 1009.7
20260508195535 65 208 3.5 8.7 0.00 0.00 0.00 42 1009.9
20260508195035 64 233 1.7 3.5 0.00 0.00 0.00 45 1009.9
20260508194534 64 255 3.5 5.2 0.00 0.00 0.00 45 1009.9
20260508194034 64 244 2.6 6.1 0.00 0.00 0.00 42 1009.9
20260508193534 65 219 4.3 9.6 0.00 0.00 0.00 44 1010.3
20260508193035 65 183 1.7 6.1 0.00 0.00 0.00 45 1010.3
20260508192535 65 182 1.7 6.1 0.00 0.00 0.00 45 1010.3
20260508192054 64 166 1.7 4.3 0.00 0.00 0.00 46 1010.6
20260508191535 63 218 2.6 7.8 0.00 0.00 0.00 47 1010.6
20260508191034 64 195 4.3 7.0 0.00 0.00 0.00 47 1010.6
20260508190535 63 217 3.5 7.0 0.00 0.00 0.00 45 1010.6
20260508190035 63 208 6.1 10.4 0.00 0.00 0.00 44 1010.6
20260508185534 64 224 2.6 5.2 0.00 0.00 0.00 45 1010.6
20260508185035 64 229 4.3 8.7 0.00 0.00 0.00 44 1010.6
20260508184555 66 201 3.5 7.0 0.00 0.00 0.00 43 1010.7
20260508184036 65 214 3.5 8.7 0.00 0.00 0.00 43 1010.6
20260508183555 67 190 2.6 6.1 0.00 0.00 0.00 42 1011.0
20260508183034 66 192 2.6 7.8 0.00 0.00 0.00 43 1011.0
20260508182534 65 208 2.6 4.3 0.00 0.00 0.00 45 1011.0
20260508182116 63 185 1.7 5.2 0.00 0.00 0.00 44 1010.9
20260508181535 64 172 2.6 7.0 0.00 0.00 0.00 44 1011.3
20260508181035 62 188 2.6 7.0 0.00 0.00 0.00 45 1011.2
20260508180534 61 222 3.5 7.8 0.00 0.00 0.00 45 1011.2
20260508180037 62 251 2.6 6.1 0.00 0.00 0.00 43 1011.2
20260508175534 62 260 3.5 7.0 0.00 0.00 0.00 43 1011.2
20260508175035 62 221 2.6 6.1 0.00 0.00 0.00 42 1011.6
20260508174535 62 234 3.5 7.0 0.00 0.00 0.00 45 1011.6
20260508174034 61 251 3.5 7.0 0.00 0.00 0.00 45 1011.6
20260508173535 61 224 5.2 8.7 0.00 0.00 0.00 45 1011.9
20260508173035 61 217 7.0 11.3 0.00 0.00 0.00 44 1011.9
20260508172535 62 218 4.3 10.4 0.00 0.00 0.00 44 1011.9
20260508172035 63 209 3.5 7.8 0.00 0.00 0.00 44 1012.0
20260508171555 62 208 2.6 9.6 0.00 0.00 0.00 45 1011.9
20260508171055 63 194 4.3 9.6 0.00 0.00 0.00 44 1012.3
20260508170535 64 176 1.7 5.2 0.00 0.00 0.00 44 1012.3
20260508170034 62 187 1.7 7.0 0.00 0.00 0.00 47 1012.3
20260508165554 61 205 4.3 8.7 0.00 0.00 0.00 46 1012.3
20260508165055 60 231 2.6 6.1 0.00 0.00 0.00 44 1012.3
20260508164534 60 258 3.5 7.0 0.00 0.00 0.00 44 1012.6
20260508164035 60 249 4.3 7.8 0.00 0.00 0.00 43 1012.6
20260508163535 60 224 3.5 8.7 0.00 0.00 0.00 43 1012.6
20260508163054 60 229 3.5 6.1 0.00 0.00 0.00 43 1012.6
20260508162555 61 215 4.3 8.7 0.00 0.00 0.00 42 1012.6
20260508162034 62 195 2.6 7.8 0.00 0.00 0.00 42 1012.7
20260508161535 61 215 2.6 5.2 0.00 0.00 0.00 43 1012.7
20260508161035 61 179 1.7 5.2 0.00 0.00 0.00 43 1012.7
20260508160534 60 221 2.6 5.2 0.00 0.00 0.00 44 1012.6
20260508160036 60 214 3.5 7.8 0.00 0.00 0.00 44 1012.6
20260508155535 62 187 2.6 5.2 0.00 0.00 0.00 45 1012.7
20260508155055 62 124 0.9 2.6 0.00 0.00 0.00 44 1012.7
20260508154535 61 148 1.7 4.3 0.00 0.00 0.00 47 1013.0
20260508154054 59 191 0.9 3.5 0.00 0.00 0.00 48 1013.0
20260508153535 58 173 1.7 3.5 0.00 0.00 0.00 47 1013.0
20260508153055 58 219 2.6 5.2 0.00 0.00 0.00 48 1013.0
20260508152535 59 195 1.7 3.5 0.00 0.00 0.00 48 1013.0
20260508152035 58 194 0.9 2.6 0.00 0.00 0.00 50 1013.0
20260508151534 57 209 1.7 2.6 0.00 0.00 0.00 52 1013.0
20260508151055 57 288 1.7 3.5 0.00 0.00 0.00 52 1013.0
20260508150534 57 282 2.6 5.2 0.00 0.00 0.00 52 1013.3
20260508150035 57 177 0.9 1.7 0.00 0.00 0.00 51 1013.3
20260508145535 58 193 1.7 2.6 0.00 0.00 0.00 51 1013.3
20260508145034 58 137 0.9 2.6 0.00 0.00 0.00 52 1013.3
20260508144534 57 98 1.7 3.5 0.00 0.00 0.00 53 1013.3
20260508144035 56 43 1.7 3.5 0.00 0.00 0.00 53 1013.3
20260508143535 56 202 1.7 3.5 0.00 0.00 0.00 57 1013.3
20260508143035 56 254 1.7 3.5 0.00 0.00 0.00 58 1013.3
20260508142534 56 34 0.9 4.3 0.00 0.00 0.00 59 1013.3
20260508142035 56 158 0.9 1.7 0.00 0.00 0.00 59 1013.6
20260508141535 55 137 0.9 2.6 0.00 0.00 0.00 60 1013.6
20260508141035 55 97 1.7 3.5 0.00 0.00 0.00 59 1013.6
20260508140554 57 135 0.9 2.6 0.00 0.00 0.00 59 1013.6
20260508140055 55 133 0.9 3.5 0.00 0.00 0.00 61 1013.6
20260508135535 55 163 1.7 2.6 0.00 0.00 0.00 61 1013.6
20260508135035 54 104 0.9 1.7 0.00 0.00 0.00 62 1013.5
20260508134535 53 35 1.7 4.3 0.00 0.00 0.00 66 1013.5
20260508134034 54 100 0.9 2.6 0.00 0.00 0.00 66 1013.5
20260508133554 53 170 0.9 1.7 0.00 0.00 0.00 67 1013.5
20260508133055 53 175 0.9 1.7 0.00 0.00 0.00 68 1013.5
20260508132655 52 352 1.7 3.5 0.00 0.00 0.00 68 1013.5
20260508132036 52 160 0.9 1.7 0.00 0.00 0.00 68 1013.5
20260508131534 51 237 1.7 3.5 0.00 0.00 0.00 69 1013.5
20260508131035 52 185 0.9 2.6 0.00 0.00 0.00 70 1013.5
20260508130534 52 147 0.9 1.7 0.00 0.00 0.00 69 1013.2
20260508130034 51 87 0.9 2.6 0.00 0.00 0.00 68 1013.2
20260508125535 51 149 0.9 1.7 0.00 0.00 0.00 71 1013.2
20260508125034 50 51 1.7 3.5 0.00 0.00 0.00 74 1013.2
20260508124534 49 200 0.9 1.7 0.00 0.00 0.00 75 1013.2
20260508124034 49 185 0.9 2.6 0.00 0.00 0.00 76 1013.2
20260508123534 49 217 0.0 2.6 0.00 0.00 0.00 76 1013.2
20260508123035 48 188 0.9 1.7 0.00 0.00 0.00 79 1013.1
20260508122534 47 189 0.9 2.6 0.00 0.00 0.00 79 1013.1
20260508122034 47 186 0.9 1.7 0.00 0.00 0.00 80 1013.2
20260508121535 46 202 1.7 2.6 0.00 0.00 0.00 80 1013.2
20260508121055 46 199 1.7 2.6 0.00 0.00 0.00 81 1013.1
20260508120535 46 196 0.9 1.7 0.00 0.00 0.00 82 1012.8
20260508120037 45 192 1.7 1.7 0.00 0.00 0.00 82 1012.8
20260508115534 45 184 0.9 1.7 0.00 0.00 0.00 82 1012.8
20260508115055 45 197 0.9 1.7 0.00 0.00 0.00 84 1012.8
20260508114556 44 200 1.7 2.6 0.00 0.00 0.00 84 1012.8
20260508114034 44 186 0.9 0.9 0.00 0.00 0.00 87 1012.4
20260508113534 43 181 0.9 0.9 0.00 0.00 0.00 89 1012.4
20260508113035 42 185 0.9 0.9 0.00 0.00 0.00 91 1012.4
20260508112535 42 177 0.0 0.9 0.00 0.00 0.00 90 1012.4
20260508112035 41 178 0.0 0.9 0.00 0.00 0.00 91 1012.4
20260508111534 41 171 0.0 0.0 0.00 0.00 0.00 92 1012.4
20260508111115 41 169 0.0 0.0 0.00 0.00 0.00 92 1012.4
20260508110534 40 168 0.0 0.0 0.00 0.00 0.00 92 1012.3
20260508110055 40 163 0.0 0.9 0.00 0.00 0.00 92 1012.3
20260508105534 40 167 0.0 0.0 0.00 0.00 0.00 91 1012.3
20260508105034 40 165 0.0 0.0 0.00 0.00 0.00 91 1012.3
20260508104534 40 164 0.0 0.0 0.00 0.00 0.00 91 1012.0
20260508104034 40 152 0.0 0.0 0.00 0.00 0.00 92 1012.3
20260508103535 40 146 0.0 0.9 0.00 0.00 0.00 91 1012.3
20260508103034 41 128 0.9 0.9 0.00 0.00 0.00 91 1012.3
20260508102534 41 130 0.0 0.9 0.00 0.00 0.00 90 1012.3
20260508102034 41 179 0.0 0.0 0.00 0.00 0.00 90 1012.4
20260508101534 41 182 0.9 0.9 0.00 0.00 0.00 91 1012.1
20260508101034 41 181 0.0 0.9 0.00 0.00 0.00 90 1012.1
20260508100534 41 178 0.0 0.9 0.00 0.00 0.00 90 1012.1
20260508100034 41 175 0.0 0.9 0.00 0.00 0.00 89 1012.1
20260508095534 41 191 0.9 1.7 0.00 0.00 0.00 90 1012.1
20260508095054 42 190 0.9 1.7 0.00 0.00 0.00 89 1012.1
20260508094535 42 182 0.0 0.9 0.00 0.00 0.00 91 1012.1
20260508094115 42 185 0.9 0.9 0.00 0.00 0.00 90 1012.1
20260508093534 41 184 0.9 0.9 0.00 0.00 0.00 89 1012.4
20260508093054 41 183 0.9 1.7 0.00 0.00 0.00 89 1012.1
20260508092555 41 186 0.0 1.7 0.00 0.00 0.00 89 1012.1
20260508092034 41 169 0.0 0.0 0.00 0.00 0.00 88 1012.1
20260508091534 42 176 0.0 0.9 0.00 0.00 0.00 88 1012.1
20260508091034 42 177 0.0 0.9 0.00 0.00 0.00 86 1012.1
20260508090534 42 180 0.9 0.9 0.00 0.00 0.00 87 1012.1
20260508090055 43 170 0.0 0.9 0.00 0.00 0.00 85 1012.1
20260508085534 43 183 0.0 1.7 0.00 0.00 0.00 84 1012.1
20260508085054 43 183 0.9 1.7 0.00 0.00 0.00 83 1012.4
20260508084534 43 185 0.9 1.7 0.00 0.00 0.00 83 1012.4
20260508084034 43 198 1.7 2.6 0.00 0.00 0.00 84 1012.4
20260508083534 44 194 0.9 1.7 0.00 0.00 0.00 83 1012.4
20260508083054 44 187 0.9 1.7 0.00 0.00 0.00 82 1012.4
20260508082534 44 184 0.9 1.7 0.00 0.00 0.00 81 1012.4
20260508082034 44 192 0.9 1.7 0.00 0.00 0.00 80 1012.4
20260508081534 44 191 0.9 1.7 0.00 0.00 0.00 80 1012.4
20260508081054 45 179 0.9 1.7 0.00 0.00 0.00 80 1012.4
20260508080534 45 186 1.7 2.6 0.00 0.00 0.00 79 1012.4
20260508080034 45 199 1.7 1.7 0.00 0.00 0.00 79 1012.4
20260508075535 45 188 0.9 1.7 0.00 0.00 0.00 79 1012.8
20260508075035 45 199 0.9 1.7 0.00 0.00 0.00 79 1012.8
20260508074555 45 193 0.9 1.7 0.00 0.00 0.00 79 1012.8
20260508074034 45 201 1.7 3.5 0.00 0.00 0.00 79 1012.5
20260508073555 44 205 1.7 2.6 0.00 0.00 0.00 79 1012.4
20260508073035 44 209 1.7 2.6 0.00 0.00 0.00 79 1012.4
20260508072535 44 193 0.9 2.6 0.00 0.00 0.00 80 1012.4
20260508072034 44 211 1.7 2.6 0.00 0.00 0.00 80 1012.5
20260508071534 44 201 0.9 1.7 0.00 0.00 0.00 80 1012.5
20260508071034 44 201 0.9 2.6 0.00 0.00 0.00 80 1012.8
20260508070534 44 204 1.7 2.6 0.00 0.00 0.00 79 1012.8
20260508070037 44 204 1.7 1.7 0.00 0.00 0.00 80 1012.8
20260508065534 44 199 0.9 1.7 0.00 0.00 0.00 79 1012.8
20260508065034 44 206 1.7 1.7 0.00 0.00 0.00 80 1012.8
20260508064534 44 192 0.9 1.7 0.00 0.00 0.00 81 1012.8
20260508064034 44 180 0.0 0.9 0.00 0.00 0.00 81 1012.8
20260508063534 44 193 0.9 1.7 0.00 0.00 0.00 80 1012.4
20260508063034 44 184 0.0 0.9 0.00 0.00 0.00 80 1012.4
20260508062534 45 209 0.9 1.7 0.00 0.00 0.00 78 1012.5
20260508062055 45 200 0.9 1.7 0.00 0.00 0.00 78 1012.8
20260508061534 45 208 1.7 2.6 0.00 0.00 0.00 77 1012.8
20260508061034 45 206 1.7 2.6 0.00 0.00 0.00 77 1012.8
20260508060534 45 203 1.7 3.5 0.00 0.00 0.00 74 1012.8
20260508060034 45 198 1.7 2.6 0.00 0.00 0.00 75 1012.8
20260508055534 45 190 0.9 2.6 0.00 0.00 0.00 77 1012.8
20260508055034 45 197 0.9 1.7 0.00 0.00 0.00 78 1012.8
20260508054534 45 200 0.9 1.7 0.00 0.00 0.00 77 1012.8
20260508054034 45 200 0.9 1.7 0.00 0.00 0.00 77 1012.8
20260508053535 45 195 0.9 1.7 0.00 0.00 0.00 74 1012.8
20260508053034 45 195 0.9 2.6 0.00 0.00 0.00 74 1012.8
20260508052534 45 197 0.9 2.6 0.00 0.00 0.00 75 1012.8
20260508052034 45 187 0.0 0.9 0.00 0.00 0.00 76 1012.8
20260508051534 45 192 0.9 0.9 0.00 0.00 0.00 76 1012.8
20260508051034 45 196 0.9 1.7 0.00 0.00 0.00 74 1012.8
20260508050534 46 202 0.9 1.7 0.00 0.00 0.00 73 1012.8
20260508050034 46 200 0.9 2.6 0.00 0.00 0.00 73 1012.8
20260508045554 46 196 0.9 1.7 0.00 0.00 0.00 74 1012.8
20260508045034 47 197 0.9 1.7 0.00 0.00 0.00 73 1012.8
20260508044534 47 204 1.7 3.5 0.00 0.00 0.00 70 1012.8
20260508044034 47 205 2.6 4.3 0.00 0.00 0.00 68 1012.8
20260508043534 47 196 1.7 4.3 0.00 0.00 0.00 68 1012.8
20260508043034 47 190 1.7 3.5 0.00 0.00 0.00 68 1012.8
20260508042554 48 187 1.7 3.5 0.00 0.00 0.00 68 1012.8
20260508042054 48 199 1.7 2.6 0.00 0.00 0.00 67 1012.8
20260508041554 48 197 1.7 3.5 0.00 0.00 0.00 66 1012.8
20260508041035 49 200 1.7 3.5 0.00 0.00 0.00 66 1012.8
20260508040534 49 202 1.7 4.3 0.00 0.00 0.00 65 1012.8
20260508040034 49 210 2.6 5.2 0.00 0.00 0.00 65 1012.8
20260508035615 49 205 2.6 5.2 0.00 0.00 0.00 65 1012.8
20260508035034 50 207 3.5 5.2 0.00 0.00 0.00 64 1013.1
20260508034535 50 217 3.5 6.1 0.00 0.00 0.00 63 1013.1
20260508034054 50 208 3.5 6.1 0.00 0.00 0.00 64 1013.1
20260508033534 50 206 3.5 5.2 0.00 0.00 0.00 64 1013.1
20260508033034 50 202 2.6 5.2 0.00 0.00 0.00 64 1013.5
20260508032534 50 211 2.6 4.3 0.00 0.00 0.00 64 1013.5
20260508032034 50 205 2.6 4.3 0.00 0.00 0.00 64 1013.1
20260508031535 50 205 1.7 4.3 0.00 0.00 0.00 63 1013.1
20260508031034 50 203 1.7 3.5 0.00 0.00 0.00 62 1013.1
20260508030534 51 204 1.7 4.3 0.00 0.00 0.00 62 1013.1
20260508030034 51 214 2.6 4.3 0.00 0.00 0.00 62 1013.1
20260508025535 51 217 2.6 4.3 0.00 0.00 0.00 61 1013.1
20260508025034 51 217 3.5 7.8 0.00 0.00 0.00 60 1013.1
20260508024534 51 213 2.6 5.2 0.00 0.00 0.00 61 1013.1
20260508024054 51 207 2.6 5.2 0.00 0.00 0.00 60 1013.1
20260508023534 51 228 3.5 6.1 0.00 0.00 0.00 59 1013.1
20260508023034 51 238 3.5 8.7 0.00 0.00 0.00 59 1013.1
20260508022534 52 236 3.5 7.0 0.00 0.00 0.00 58 1013.2
20260508022034 52 229 3.5 7.8 0.00 0.00 0.00 55 1013.2
20260508021554 52 218 4.3 7.8 0.00 0.00 0.00 53 1013.1
20260508021034 52 217 2.6 4.3 0.00 0.00 0.00 54 1013.1
20260508020534 52 208 2.6 4.3 0.00 0.00 0.00 52 1012.8
20260508020034 52 204 3.5 5.2 0.00 0.00 0.00 51 1012.8
20260508015534 52 205 2.6 4.3 0.00 0.00 0.00 50 1012.5
20260508015035 52 228 1.7 4.3 0.00 0.00 0.00 51 1012.5
20260508014534 52 220 1.7 4.3 0.00 0.00 0.00 51 1012.5
20260508014034 53 235 2.6 5.2 0.00 0.00 0.00 50 1012.5
20260508013534 52 243 4.3 8.7 0.00 0.00 0.00 51 1012.5
20260508013034 52 232 5.2 13.0 0.00 0.00 0.00 52 1012.4
20260508012534 51 206 1.7 3.5 0.00 0.00 0.00 53 1012.1
20260508012034 51 179 0.9 0.9 0.00 0.00 0.00 53 1012.1
20260508011534 52 180 0.0 0.9 0.00 0.00 0.00 57 1012.1
20260508011034 52 187 0.9 0.9 0.00 0.00 0.00 53 1012.1
20260508010554 52 182 0.0 0.9 0.00 0.00 0.00 51 1012.1
20260508010034 52 187 0.9 0.9 0.00 0.00 0.00 51 1012.1
20260508005554 52 186 0.9 0.9 0.00 0.00 0.00 46 1012.1
20260508005054 52 182 0.0 0.9 0.00 0.00 0.00 48 1012.1
20260508004535 52 179 0.0 0.0 0.00 0.00 0.00 50 1012.0
20260508004054 52 179 0.0 0.0 0.00 0.00 0.00 49 1012.0
20260508003534 53 185 0.0 0.9 0.00 0.00 0.00 47 1012.1
20260508003034 53 203 0.9 1.7 0.00 0.00 0.00 45 1012.1
20260508002554 54 213 0.9 1.7 0.00 0.00 0.00 45 1012.1
20260508002034 54 211 0.9 2.6 0.00 0.00 0.00 43 1012.1
20260508001534 55 232 2.6 4.3 0.00 0.00 0.00 41 1012.0
20260508001034 55 242 1.7 4.3 0.00 0.00 0.00 41 1012.0
20260508000534 56 247 3.5 6.1 0.00 0.00 0.00 39 1012.0
20260508000035 55 247 2.6 6.1 0.00 0.00 0.00 40 1012.0
20260507235534 56 262 2.6 4.3 0.00 0.00 0.00 40 1012.0
20260507235055 57 285 2.6 5.2 0.00 0.00 0.00 39 1012.0
20260507234534 56 254 3.5 7.0 0.00 0.00 0.00 39 1011.9
20260507234034 56 252 2.6 5.2 0.00 0.00 0.00 39 1012.3
20260507233535 58 268 3.5 7.0 0.00 0.00 0.00 37 1012.0
20260507233034 58 286 3.5 6.1 0.00 0.00 0.00 38 1012.0
20260507232614 57 258 3.5 7.0 0.00 0.00 0.00 38 1012.3
20260507232035 56 254 4.3 7.0 0.00 0.00 0.00 38 1012.2
20260507231554 56 261 5.2 11.3 0.00 0.00 0.00 38 1012.3
20260507231034 56 236 4.3 7.0 0.00 0.00 0.00 38 1012.3
20260507230534 57 256 3.5 7.0 0.00 0.00 0.00 38 1012.3
20260507230034 57 242 3.5 7.0 0.00 0.00 0.00 38 1012.3
20260507225534 57 269 3.5 6.1 0.00 0.00 0.00 38 1012.3
20260507225034 57 268 3.5 6.1 0.00 0.00 0.00 38 1012.3
20260507224554 57 279 4.3 7.0 0.00 0.00 0.00 37 1012.3
20260507224035 57 294 5.2 8.7 0.00 0.00 0.00 37 1012.3
20260507223534 59 264 4.3 8.7 0.00 0.00 0.00 36 1012.3
20260507223034 59 300 4.3 7.8 0.00 0.00 0.00 35 1012.3
20260507222554 57 251 3.5 7.8 0.00 0.00 0.00 37 1012.3
20260507222034 56 305 6.1 10.4 0.00 0.00 0.00 37 1012.2
20260507221534 57 278 5.2 10.4 0.00 0.00 0.00 38 1012.3
20260507221115 58 247 5.2 9.6 0.00 0.00 0.00 36 1012.4